Regional Weather Roundup
Issued by NWS Green Bay, WI

Home | Current Version | Previous Version | Text Only | Print | Product List | Glossary On
Versions: 1 2 3 4 5 6 7 8 9 10 11 12 13 14 15 16 17 18 19 20 21 22 23 24 25 26 27 28 29 30 31 32 33 34 35 36 37 38 39 40 41 42 43 44 45 46 47 48 49 50
000
ASUS43 KGRB 280100
RWRGRB

NORTH-CENTRAL AND NORTHEAST WISCONSIN REGIONAL WEATHER ROUNDUP
NATIONAL WEATHER SERVICE GREEN BAY WI
800 PM CDT MON MAR 27 2017

WIZ005-009-010>012-018-019-280200-
NORTH CENTRAL WISCONSIN

CITY           SKY/WX    TMP DP  RH WIND       PRES   REMARKS
IRONWOOD       CLOUDY    40  30  67 CALM      30.01R
MANITOWISH WTR NOT AVBL
ARBOR VITAE    NOT AVBL
EAGLE RIVER    NOT AVBL
LAND O LAKES   NOT AVBL
RHINELANDER    CLEAR     41  32  70 CALM      29.97R
PHILLIPS       NOT AVBL
ANTIGO         NOT AVBL
TOMAHAWK       NOT AVBL
MERRILL        NOT AVBL
$$

WIZ013-073-280200-
NORTHEAST WISCONSIN

CITY           SKY/WX    TMP DP  RH WIND       PRES   REMARKS
IRON MOUNTAIN  CLOUDY    38  33  82 NW6       29.96R
MARINETTE        N/A    N/A N/A N/A MISG        N/A
$$

WIZ017-030-035>037-045-280200-
CENTRAL WISCONSIN

CITY           SKY/WX    TMP DP  RH WIND       PRES   REMARKS
MEDFORD        NOT AVBL
WAUSAU         CLOUDY    42  38  85 CALM      29.96R
MOSINEE        CLOUDY    43  39  87 N5        29.98R
MARSHFIELD     CLOUDY    42  36  79 NE3       29.96R
WISC RAPIDS    CLOUDY    41  40  96 NW3       29.99R
STEVENS POINT  NOT AVBL
WAUPACA        NOT AVBL
SHAWANO        NOT AVBL
CLINTONVILLE   NOT AVBL
WAUTOMA        CLOUDY    43  41  93 NE6       29.98R
$$

WIZ038-039-048-051-280200-
FOX VALLEY

CITY           SKY/WX    TMP DP  RH WIND       PRES   REMARKS
NWS GREEN BAY  CLOUDY    40  37  89 NE3       29.99R
APPLETON       CLOUDY    41  39  93 VRB5      29.96R
OSHKOSH        CLOUDY    41  38  89 NE6       29.97R FOG
FOND DU LAC    CLOUDY    43  38  82 N8        29.97R HAZE
$$

WIZ022-050-052-280200-
EAST CENTRAL WISCONSIN

CITY           SKY/WX    TMP DP  RH WIND       PRES   REMARKS
EPHRAIM        NOT AVBL
WASHINGTON ISL NOT AVBL
STURGEON BAY   CLOUDY    38  36  92 CALM      29.98R
MANITOWOC      NOT AVBL
SHEBOYGAN      CLOUDY    37  34  89 NE7       29.98R
$$

LMZ563-521-522-541>543-280200-
LAKESHORE

STATION/POSITION TIME  TEMP    WIND        PRES    VSBY  WAVE
                       AIR SEA DIR/SP/G                  HT/PER
                 (UTC) (F)     (DEG/KT/KT) (MB)    (MI)  (FT/S)
SHEBOYGAN LKSHOR 0000   36      10/  4/  4 1015.6R
KEWAUNEE LKSHORE 0030   36      CALM  /  2 1014.7S
NORTHPORT PIER   0040   34        CALM     1015.2S
CHAMBERS ISLAND  0040   35      CALM  /  1 1014.9R
MENOMINEE LKSHOR 0030   35     190/  2/  3 1014.3R
$$




USA.gov is the U.S. government's official web portal to all federal, state and local government web resources and services.